[[{"header":{"parameterUnit":"m.s-1","parameterCategory":1,"la1":30.2991,"la2":30.254,"lo1":-89.0895,"lo2":-89.0444,"dy":0.0017,"dx":0.0017,"nx":28,"ny":28,"refTime":"2024-07-06T03:00:00:Z","depth":0,"parameterNumber":2,"parameterNumberName":"U-component_of_WINDS"},"data":[0,0,0,0,0,0,0,0,0,0,0,0,0,0,0,0,0,0,0,0,0,0,0,0,0,0,0,0,0,0,0,0,0,0,0,0,0,0,0,0,0,0,0,0,0,0,0,0,0,0,0,0,0,0,0,0,0,0,0.4525,0.4526,0,0.4688,0.469,0.4692,0.472,0.4719,0.4718,0.4716,0.489,0.4896,0.4902,0,0,0,0,0,0,0,0,0,0,0,0,0,0.4243,0.4248,0.4524,0.4526,0.4528,0.4688,0.469,0.4693,0.4721,0.4719,0.4717,0.4716,0.4888,0.4895,0.4902,0,0,0,0,0,0,0,0,0,0,0,0,0,0.4382,0.4249,0.4524,0.4562,0.4567,0.4688,0.469,0.4693,0.4721,0.4719,0.4717,0.4715,0.4886,0.4894,0.4903,0.5,0,0,0.493,0.4934,0,0,0,0,0,0,0,0,0.4374,0.4392,0.4554,0.4559,0.4565,0.4682,0.4655,0.4796,0.4722,0.4663,0.4716,0.4714,0.4823,0.4837,0.4872,0.5008,0.5015,0.4931,0.4936,0.494,0.4943,0,0,0,0,0,0,0,0.4364,0.4385,0.4589,0.4556,0.4563,0.4573,0.459,0.4682,0.4753,0.4668,0.467,0.4689,0.4825,0.4863,0.4876,0.5018,0.4931,0.4939,0.4944,0.4948,0.5243,0.5246,0,0,0,0,0,0,0.4347,0.4377,0.4584,0.4594,0.4462,0.4579,0.4599,0.4646,0.4752,0.4766,0.469,0.4689,0.4849,0.4866,0.4883,0.5003,0.494,0.4948,0.4954,0.5241,0.5244,0.5247,0,0,0,0,0,0,0.4341,0.4365,0.4578,0.4486,0.4514,0.4586,0.464,0.4651,0.4689,0.4769,0.4782,0.4716,0.4848,0.487,0.497,0.501,0.4952,0.496,0.5238,0.5242,0.5245,0.5245,0,0,0,0,0,0,0.4333,0.4363,0.4398,0.4487,0.4519,0.466,0.4642,0.4656,0.4703,0.4704,0.4796,0.481,0.4848,0.4957,0.4979,0.5021,0.4967,0.5235,0.524,0.5244,0.5242,0.5248,0.5254,0,0,0,0,0,0.4322,0.4393,0.44,0.4425,0.4565,0.4662,0.4681,0.4723,0.4706,0.4744,0.4796,0.4807,0.5002,0.4967,0.4992,0.5037,0.5232,0.5238,0.5244,0.5239,0.5247,0.5254,0,0,0,0,0,0,0.4308,0.4405,0.4414,0.4514,0.458,0.4667,0.4715,0.473,0.4802,0.48,0.485,0.4871,0.4969,0.5014,0.4973,0.5138,0.5116,0.5127,0.5104,0.5113,0.5118,0.5105,0.4975,0,0,0,0,0,0.4316,0.4386,0.4467,0.4548,0.4581,0.4642,0.4687,0.4713,0.4784,0.4812,0.4871,0.4941,0.5018,0.5068,0.5144,0.5249,0.5271,0.5293,0.5299,0.5304,0.5312,0.5373,0.5384,0.5265,0.5265,0.5265,0,0,0.4334,0.4396,0.4437,0.4547,0.4601,0.4674,0.4665,0.4743,0.4798,0.4824,0.4922,0.4968,0.505,0.5153,0.5202,0.5193,0.535,0.5311,0.5314,0.532,0.538,0.5391,0.5401,0.5269,0.5269,0.5268,0,0,0.4405,0.4458,0.4531,0.4585,0.4667,0.4708,0.4725,0.4811,0.4842,0.4941,0.4963,0.5031,0.5162,0.522,0.5266,0.5361,0.5374,0.5385,0.5416,0.5474,0.5484,0.5492,0.5527,0.5538,0.5393,0.5393,0.5393,0,0.4417,0.4526,0.4568,0.4644,0.4693,0.4719,0.4796,0.4847,0.495,0.4984,0.4973,0.5139,0.5196,0.5314,0.5337,0.5374,0.5397,0.5374,0.5479,0.5488,0.5496,0.553,0.5543,0.5394,0.5394,0.5394,0.5394,0,0.4538,0.4613,0.4663,0.476,0.4815,0.4891,0.4946,0.4997,0.502,0.5063,0.5165,0.5234,0.5324,0.5355,0.5378,0.5477,0.5469,0.5468,0.5448,0.5508,0.554,0.5553,0.5395,0.5395,0.5395,0.5394,0,0,0.4601,0.4721,0.4739,0.4784,0.4877,0.4937,0.5016,0.5103,0.5146,0.5217,0.5285,0.5397,0.5396,0.5449,0.548,0.5531,0.5603,0.5524,0.5527,0.5537,0.5718,0.5717,0.5731,0.5613,0.5615,0.5618,0.5711,0,0.4682,0.482,0.4862,0.4979,0.505,0.5078,0.5147,0.5213,0.5256,0.5324,0.5373,0.5451,0.5445,0.5477,0.5529,0.5583,0.564,0.5577,0.5679,0.5682,0.5656,0.5748,0.5748,0.5832,0.5724,0.5726,0.5727,0,0.4794,0.4865,0.4989,0.5074,0.5106,0.5166,0.5251,0.5315,0.5392,0.542,0.548,0.5506,0.5592,0.5568,0.5688,0.5644,0.5689,0.5722,0.5726,0.5737,0.5707,0.5761,0.586,0.5873,0.5748,0.5746,0.5745,0,0.4828,0.4955,0.5046,0.5084,0.5185,0.5228,0.5273,0.5347,0.5397,0.5472,0.5505,0.559,0.5636,0.5702,0.5752,0.5729,0.5868,0.5848,0.5895,0.5894,0.5922,0.592,0.603,0.5952,0.5951,0.5951,0.5951,0,0.4913,0.4988,0.5063,0.5118,0.5204,0.5253,0.5337,0.5383,0.545,0.5517,0.5547,0.561,0.5672,0.5744,0.5784,0.5878,0.5899,0.5925,0.5935,0.5922,0.5919,0.5952,0.5947,0.5955,0.5954,0.5953,0.5953,0,0.4965,0.5017,0.5118,0.5207,0.5231,0.529,0.5367,0.5424,0.5468,0.5553,0.5576,0.5647,0.5734,0.579,0.5901,0.5928,0.6031,0.6039,0.6004,0.6009,0.6053,0.6048,0.6188,0.6209,0.6117,0.6117,0.6118,0,0.5015,0.5073,0.5168,0.5214,0.5259,0.5333,0.5385,0.5436,0.5489,0.5582,0.5628,0.5716,0.5789,0.5926,0.5989,0.6075,0.6085,0.6129,0.6098,0.6084,0.6086,0.6082,0.6089,0.6133,0.6134,0.6134,0.6135,0,0.5099,0.5123,0.5195,0.5277,0.5337,0.5405,0.5472,0.5509,0.5573,0.5632,0.5719,0.5776,0.5889,0.5977,0.6069,0.6118,0.6138,0.6144,0.616,0.6147,0.6124,0.6137,0.6017,0.614,0.614,0.6139,0.6139,0.6139,0.5152,0.5205,0.528,0.536,0.5417,0.548,0.5537,0.559,0.5663,0.5758,0.5785,0.5877,0.5955,0.608,0.6131,0.6205,0.62,0.6223,0.6229,0.6233,0.6234,0.6113,0.6222,0.6222,0.6222,0.6222,0.6222,0,0.5237,0.5287,0.536,0.5454,0.5518,0.553,0.5606,0.5659,0.5739,0.5809,0.5881,0.5983,0.6069,0.614,0.6229,0.6275,0.6287,0.6297,0.6294,0.6305,0.6233,0.621,0.6286,0.6286,0.6286,0.6286,0.6286,0.6286,0.5289,0.538,0.5413,0.5534,0.5585,0.5674,0.5716,0.5776,0.5832,0.5944,0.6015,0.606,0.6132,0.6227,0.6307,0.6326,0.6358,0.6366,0.6387,0.6317,0.631,0.6303,0.6282,0.6372,0.6372,0.6453,0.6454,0.6454]},{"header":{"parameterUnit":"m.s-1","parameterCategory":1,"la1":30.2991,"la2":30.254,"lo1":-89.0895,"lo2":-89.0444,"dy":0.0017,"dx":0.0017,"nx":28,"ny":28,"refTime":"2024-07-06T03:00:00:Z","depth":0,"parameterNumber":3,"parameterNumberName":"V-component_of_WINDS"},"data":[0,0,0,0,0,0,0,0,0,0,0,0,0,0,0,0,0,0,0,0,0,0,0,0,0,0,0,0,0,0,0,0,0,0,0,0,0,0,0,0,0,0,0,0,0,0,0,0,0,0,0,0,0,0,0,0,0,0,0.207,0.2069,0,0.1975,0.1974,0.1973,0.1791,0.1787,0.1784,0.178,0.1687,0.1688,0.1689,0,0,0,0,0,0,0,0,0,0,0,0,0,0.2096,0.2097,0.207,0.2069,0.2067,0.1975,0.1974,0.1972,0.1791,0.1787,0.1783,0.1779,0.1687,0.1688,0.1689,0,0,0,0,0,0,0,0,0,0,0,0,0,0.2052,0.2097,0.207,0.1966,0.1955,0.1975,0.1974,0.1972,0.1792,0.1787,0.1782,0.1777,0.1686,0.1688,0.1689,0.1804,0,0,0.1693,0.1693,0,0,0,0,0,0,0,0,0.2054,0.2051,0.1982,0.1973,0.1961,0.1889,0.1948,0.1916,0.1794,0.1855,0.178,0.1774,0.1759,0.1754,0.1748,0.1799,0.1795,0.1693,0.1694,0.1694,0.1694,0,0,0,0,0,0,0,0.2058,0.2054,0.2032,0.1982,0.1969,0.1924,0.1912,0.1941,0.1838,0.1849,0.1835,0.1826,0.1752,0.1747,0.1744,0.1794,0.1693,0.1694,0.1695,0.1695,0.1933,0.1938,0,0,0,0,0,0,0.2075,0.2058,0.2035,0.2029,0.1996,0.1928,0.1915,0.1918,0.1837,0.182,0.1831,0.1818,0.1748,0.1743,0.174,0.1869,0.1694,0.1695,0.1696,0.1927,0.1934,0.194,0,0,0,0,0,0,0.2077,0.2075,0.2039,0.204,0.2032,0.1934,0.1939,0.1919,0.1913,0.1824,0.1804,0.1845,0.1743,0.1739,0.1789,0.1863,0.1696,0.1697,0.1921,0.1929,0.1937,0.2128,0,0,0,0,0,0,0.2078,0.2077,0.2119,0.2042,0.2032,0.2089,0.1943,0.1921,0.1916,0.1898,0.1831,0.1815,0.1739,0.1788,0.179,0.1862,0.1698,0.1914,0.1925,0.1934,0.2114,0.2141,0.2165,0,0,0,0,0,0.208,0.2178,0.2122,0.2121,0.2083,0.2094,0.2088,0.1997,0.1922,0.1964,0.1906,0.1817,0.1854,0.1794,0.1795,0.1869,0.1909,0.1922,0.1934,0.2103,0.2136,0.2164,0,0,0,0,0,0,0.2268,0.2166,0.2103,0.2179,0.2146,0.2063,0.2113,0.2035,0.2024,0.2008,0.1896,0.1883,0.1948,0.1912,0.1848,0.1975,0.1867,0.1881,0.1996,0.2026,0.2051,0.2059,0.1699,0,0,0,0,0,0.2318,0.2334,0.2244,0.2319,0.2306,0.2213,0.2214,0.2146,0.2108,0.2094,0.204,0.2008,0.2011,0.2016,0.2015,0.2107,0.209,0.2158,0.2183,0.2204,0.2218,0.2264,0.2293,0.1981,0.1981,0.1981,0,0,0.2422,0.2368,0.2385,0.2356,0.2322,0.2343,0.2203,0.223,0.2244,0.2099,0.2142,0.2101,0.2057,0.2129,0.2158,0.2102,0.23,0.222,0.2238,0.224,0.228,0.2309,0.2336,0.199,0.1988,0.1987,0,0,0.2622,0.2582,0.264,0.2609,0.256,0.2497,0.2511,0.2439,0.2406,0.2448,0.2339,0.2354,0.2363,0.2336,0.2324,0.2511,0.2429,0.2514,0.2647,0.2693,0.2717,0.2738,0.2806,0.2832,0.2527,0.2528,0.2528,0,0.2758,0.2783,0.2681,0.2714,0.2705,0.2572,0.263,0.2605,0.2559,0.2556,0.2493,0.25,0.2462,0.2525,0.2571,0.2565,0.2578,0.2522,0.2722,0.2742,0.276,0.2824,0.2849,0.2538,0.2537,0.2536,0.2535,0,0.2952,0.2971,0.3024,0.2981,0.2977,0.3023,0.2929,0.2937,0.2869,0.2813,0.2857,0.2805,0.279,0.28,0.2735,0.2854,0.2821,0.2742,0.2632,0.2802,0.286,0.2883,0.2554,0.255,0.2547,0.2544,0,0,0.3271,0.3168,0.319,0.3168,0.3103,0.3116,0.3156,0.314,0.315,0.3122,0.3153,0.3162,0.3088,0.3074,0.3004,0.3045,0.3197,0.296,0.2957,0.3007,0.3326,0.3387,0.3417,0.3141,0.3145,0.3148,0.333,0,0.3457,0.3518,0.3427,0.351,0.3526,0.3399,0.3433,0.3398,0.3346,0.3353,0.3295,0.3304,0.3205,0.3196,0.3229,0.3171,0.326,0.3157,0.317,0.3172,0.3187,0.3447,0.3512,0.3686,0.3352,0.3355,0.3358,0,0.3683,0.3665,0.3749,0.3677,0.3681,0.3714,0.3691,0.3699,0.3656,0.3615,0.3599,0.3515,0.3549,0.3441,0.3487,0.3419,0.3419,0.3391,0.3395,0.3395,0.3277,0.3455,0.3739,0.3766,0.3392,0.339,0.3387,0,0.3908,0.3904,0.3953,0.3939,0.3856,0.3882,0.385,0.38,0.3797,0.3777,0.3774,0.3759,0.3752,0.3743,0.3658,0.3587,0.3715,0.3599,0.3683,0.3685,0.3717,0.3717,0.4007,0.3715,0.3714,0.3714,0.3713,0,0.4127,0.4184,0.4053,0.4084,0.4144,0.4037,0.41,0.4054,0.4011,0.4031,0.392,0.3942,0.3826,0.3836,0.3769,0.3817,0.3815,0.3783,0.3765,0.3795,0.3799,0.3794,0.3781,0.3721,0.3719,0.3718,0.3717,0,0.4389,0.4303,0.4349,0.4267,0.4247,0.4295,0.4225,0.425,0.419,0.4217,0.4217,0.4124,0.4128,0.4041,0.4029,0.3984,0.4063,0.4023,0.4078,0.4066,0.4155,0.4149,0.4454,0.4489,0.4174,0.4177,0.4179,0,0.4535,0.4575,0.4497,0.4501,0.4474,0.4483,0.4478,0.4374,0.4374,0.4327,0.4358,0.4353,0.4344,0.4358,0.429,0.428,0.4239,0.4347,0.4237,0.4265,0.4242,0.4242,0.4246,0.4371,0.4375,0.4378,0.4381,0,0.4803,0.4759,0.4755,0.4737,0.4734,0.4715,0.4689,0.4699,0.4586,0.4592,0.4594,0.4587,0.4574,0.4571,0.4548,0.4514,0.443,0.4415,0.4434,0.4466,0.4497,0.4482,0.4143,0.4409,0.4406,0.4404,0.4403,0.4402,0.5012,0.5042,0.4991,0.4991,0.496,0.4938,0.4957,0.4899,0.4899,0.488,0.4818,0.4832,0.4786,0.4746,0.472,0.4729,0.4676,0.4704,0.4711,0.472,0.4737,0.4493,0.4725,0.4724,0.4723,0.4722,0.4721,0,0.5276,0.5236,0.5237,0.5203,0.5203,0.5121,0.5087,0.5093,0.5106,0.507,0.5063,0.5067,0.5063,0.4993,0.4981,0.5002,0.4963,0.5003,0.5001,0.4995,0.4785,0.477,0.5035,0.5035,0.5035,0.5035,0.5035,0.5034,0.5413,0.5459,0.5409,0.5439,0.5398,0.541,0.5398,0.5377,0.5348,0.5356,0.5352,0.5306,0.5257,0.524,0.5233,0.5213,0.5214,0.5268,0.5235,0.504,0.501,0.4981,0.4967,0.5269,0.5269,0.5444,0.5446,0.5447]}]]